Satellite: ASTRA 1B
Catalog number: 21139
Epoch time:      103049.00000000
Element set:     161 
Inclination:        0.0122 deg
RA of node:       319.8851 deg
Eccentricity:    0.0002995
Arg of perigee:    65.1991 deg
Mean anomaly:     1Mean motion:    1.00273184 rev/day
Decay rate:    1.1600E-006 rev/day^2
Epoch rev:            3218
Checksum:              228

Satellite: METEOSAT 5 (MO
Catalog number: 21140
Epoch time:      103051.80113615
Element set:     730 
Inclination:        5.6341 deg
RA of node:        69.9260 deg
Eccentricity:    0.0001292
Arg of perigee:   154.0045 deg
Mean anomaly:     277.6241 deg
Mean motion:    1.00274805 rev/day
Decay rate:    1.5000E-007 rev/day^2
Epoch rev:            4607
Checksum:              238

Satellite: NOAA 12
Catalog number: 21263
Epoch time:      103054.96013033
Element set:     987 
Inclination:       98.6270 RA of node:        44.4964 deg
Eccentricity:    0.0013300
Arg of perigee:    10.2360 deg
Mean anomaly:     349.9087 deg
Mean motion:   14.25085645 rev/day
Decay rate:    2.9800E-006 rev/day^2
Epoch rev:           61198
Checksum:              298

Satellite: OSCAR 22 (UoSA
Catalog number: 21575
Epoch time:      103055.20891535
Element set:     733 
Inclination:       98.1412 deg
RA of node:        47.0458 deg
Eccentricity:    0.0008372
Arg of perigee:   112.6376 deg
Mean anomaly:     247.5698 deg
Mean motion:   14.39159013 rev/day
Decay rate:    2.8500E-006 rev/day^2
Epoch rev:           60909
Checksum:              318

Satellite: MECatalog number: 21655
Epoch time:      103054.91622594
Element set:     579 
Inclination:       82.5544 deg
RA of node:        35.0791 deg
Eccentricity:    0.0012624
Arg of perigee:   181.1281 deg
Mean anomaly:     178.9815 deg
Mean motion:   13.16979764 rev/day
Decay rate:    5.1000E-007 rev/day^2
Epoch rev:           55418
Checksum:              325

Satellite: UARS
Catalog number: 21701
Epoch time:      103054.68466369
Element set:     832 
Inclination:       56.9825 deg
RA of node:        11.3431 deg
Eccentricity:    0.0004452
Arg of perigee:   114.2379 deg
Mean anomaly:     245.9112 deg
Mean motion:   15.02870391 rev/day
Decay rate:    6.9900E-00Epoch rev:           62648
Checksum:              406

Satellite: EUTELSAT 2-F3
Catalog number: 21803
Epoch time:      103051.82541764
Element set:     524 
Inclination:        2.6025 deg
RA of node:        89.0644 deg
Eccentricity:    0.0003498
Arg of perigee:   285.9590 deg
Mean anomaly:      94.1679 deg
Mean motion:    1.00280742 rev/day
Decay rate:    1.2399E-006 rev/day^2
Epoch rev:            3702
Checksum:              296

Satellite: INMARSAT 2-F3
Catalog number: 21814
Epoch time:      103054.35330983
Element set:     621 
Inclination:        1.7536 deg
RA of node:        58.4643 deg
Eccentricity:    0.0002896Arg of perigee:   282.9117 deg
Mean anomaly:     156.5856 deg
Mean motion:    1.00271555 rev/day
Decay rate:    1.0200E-006 rev/day^2
Epoch rev:            4094
Checksum:              281

Satellite: INMARSAT 2-F4
Catalog number: 21940
Epoch time:      103050.69047470
Element set:     572 
Inclination:        2.3826 deg
RA of node:        19.3097 deg
Eccentricity:    0.0001649
Arg of perigee:   306.8710 deg
Mean anomaly:     180.4154 deg
Mean motion:    1.00263836 rev/day
Decay rate:   -3.5600E-006 rev/day^2
Epoch rev:            3969
Checksum:              286

Satellite: EUTELSAT 2-F4
Catalog number: 22028
Epoch time:      103052.59043583
Element set:     333 
Inclination:        1.7240 deg
RA of node:        92.4650 deg
Eccentricity:    0.0006109
Arg of perigee:   235.3032 deg
Mean anomaly:      23.5664 deg
Mean motion:    1.00271843 rev/day
Decay rate:   -1.0600E-006 rev/day^2
Epoch rev:            3180
Checksum:              345

Satellite: OSCAR 23 (KITS
Catalog number: 22077
Epoch time:      103054.93194366
Element set:     241 
Inclination:       66.0870 deg
RA of node:       114.4980 deg
Eccentricity:    0.0015627
Arg of perigee:   272.2347 deg
Mean anomaly:      87.6883 deg
Mean motion:   12.86408623 rev/day
Decay rate:   -3.7000E-007 rev/day^2
Epoch rev:           49499
Checksum:              327

Satellite: ASTRA 1C
Catalog number: 22653
Epoch time:      103049.00000000
Element set:     788 
Inclination:        0.0122 deg
RA of node:       319.8851 deg
Eccentricity:    0.0002995
Arg of perigee:    65.1991 deg
Mean anomaly:     141.6099 deg
Mean motion:    1.00273184 rev/day
Decay rate:    1.1600E-006 rev/day^2
Epoch rev:            3088
Checksum:              252

Satellite: METEOR 2-21
Catalog number: 22782
Epoch time:      103054.81389339
Element set:     526 
Inclination:       82.5487 deg
RA of node:       210.7329 deg
Eccentricity:    0.0021716
Arg of perigee:   334.3743 deg
Mean anomaly:      25.6334 deg
Mean motion:   13.83532469 rev/day
Decay rate:    3.8999E-007 rev/day^2
Epoch rev:           47881
Checksum:              346

Satellite: KITSAT B
Catalog number: 22825
Epoch time:      103054.93416882
Element set:     494 
Inclination:       98.2744 deg
RA of node:        84.3572 deg
Eccentricity:    0.0007469
Arg of perigee:   241.2873 deg
Mean anomaly:     118.7559 deg
Mean motion:   14.28945438 rev/day
Decay rate:    1.2699E-006 rev/day^2
Epoch rev:           49064
Checksum:              461

Satellite: POSAT 1
Catalog number: 22826
Epoch time:      103055.52369706
Element set:     316 
Inclination:      RA of node:        86.0359 deg
Eccentricity:    0.0007997
Arg of perigee:   242.2411 deg
Mean anomaly:     117.7963 deg
Mean motion:   14.29168916 rev/day
Decay rate:    1.5499E-006 rev/day^2
Epoch rev:           49077
Checksum:              350

Satellite: ITAMSAT
Catalog number: 22828
Epoch time:      103054.59267322
Element set:     433 
Inclination:       98.2711 deg
RA of node:        85.4152 deg
Eccentricity:    0.0009133
Arg of perigee:   220.3311 deg
Mean anomaly:     139.7189 deg
Mean motion:   14.29510325 rev/day
Decay rate:    1.3400E-006 rev/day^2
Epoch rev:           45884
Checksum:              390

Satellite: EYESAT A
Catalog number: 22829
Epoch time:      103055.16080259
Element set:     458 
Inclination:       98.2718 deg
RA of node:        86.5628 deg
Eccentricity:    0.0008978
Arg of perigee:   218.5269 deg
Mean anomaly:     141.5269 deg
Mean motion:   14.29771786 rev/day
Decay rate:    2.0699E-006 rev/day^2
Epoch rev:           49085
Checksum:              366

Satellite: METEOSAT 6
Catalog number: 22912
Epoch time:      103051.81446144
Element set:     688 
Inclination:        2.6769 deg
RA of node:        82.0054 deg
Eccentricity:    0.0032321
Arg of perigee:   356.1752 deg
Mean anomaly:      14.7022 deg
Mean motion:    1.00272947 rev/day
Decay rate:    5.59Epoch rev:            3232
Checksum:              284

Satellite: GOES 8
Catalog number: 23051
Epoch time:      103054.27941628
Element set:     619 
Inclination:        0.3086 deg
RA of node:       103.0267 deg
Eccentricity:    0.0000856
Arg of perigee:   264.2393 deg
Mean anomaly:     171.3954 deg
Mean motion:    1.00276017 rev/day
Decay rate:   -2.6099E-006 rev/day^2
Epoch rev:            3985
Checksum:              407

Satellite: ASTRA 1D
Catalog number: 23331
Epoch time:      103052.80144086
Element set:     819 
Inclination:        0.0537 deg
RA of node:       223.1440 deg
Eccentricity:    0.0013728
Arg of perigee:   173.9673 deg
Mean anomaly:      66.7649 deg
Mean motion:    1.00275913 rev/day
Decay rate:    1.3200E-006 rev/day^2
Epoch rev:            3090
Checksum:              258

Satellite: RADIO ROSTO
Catalog number: 23439
Epoch time:      103054.96988991
Element set:     686 
Inclination:       64.8161 deg
RA of node:        32.7456 deg
Eccentricity:    0.0146728
Arg of perigee:   114.1360 deg
Mean anomaly:     247.4982 deg
Mean motion:   11.27547605 rev/day
Decay rate:   -4.1999E-007 rev/day^2
Epoch rev:           33620
Checksum:              344

Satellite: NOAA 14
Catalog number: 23455
Epoch time:      1Element set:     538 
Inclination:       99.1867 deg
RA of node:        73.7073 deg
Eccentricity:    0.0008708
Arg of perigee:   211.8951 deg
Mean anomaly:     148.1693 deg
Mean motion:   14.13299854 rev/day
Decay rate:    1.4500E-006 rev/day^2
Epoch rev:           42024
Checksum:              321

Satellite: HIMAWARI 5 (GM
Catalog number: 23522
Epoch time:      103055.13584602
Element set:     118 
Inclination:        1.7776 deg
RA of node:        83.3840 deg
Eccentricity:    0.0000664
Arg of perigee:   120.4804 deg
Mean anomaly:     138.8454 deg
Mean motion:    1.00275886 rev/day
Decay rate:   -2.9099E-006 rev/day^2
Epoch rev:            2894
Checksum:              304

Satellite: HOT BIRD 1
Catalog number: 23537
Epoch time:      103051.86711589
Element set:     536 
Inclination:        0.1065 deg
RA of node:       111.6969 deg
Eccentricity:    0.0007490
Arg of perigee:   174.8875 deg
Mean anomaly:     189.0308 deg
Mean motion:    1.00276476 rev/day
Decay rate:    8.2000E-007 rev/day^2
Epoch rev:            2899
Checksum:              426

Satellite: GOES 9
Catalog number: 23581
Epoch time:      103054.47365380
Element set:     530 
Inclination:        0.2611 deg
RA of node:       277.5476 deg
Eccentricity:    0.0011960
Arg of perigeeMean anomaly:     356.2270 deg
Mean motion:    1.00059226 rev/day
Decay rate:    1.0899E-006 rev/day^2
Epoch rev:            2841
Checksum:              286

